Fallon NAS, NV

10:35 AM PDT on May 23, 2018 (GMT -0700)
Fallon Naval Air Station

Weather History for KNFL - March, 2014

Change the Weather History Date:

Tuesday, March 4, 2014

  Actual Average Record
Temperature  
Mean Temperature 50 °F -  
Max Temperature 57 °F 53 °F 71 °F (1929)
Min Temperature 42 °F 26 °F 3 °F (1948)
Degree Days  
Heating Degree Days 16    
Moisture  
Dew Point 40 °F    
Average Humidity 78    
Maximum Humidity 97    
Minimum Humidity 40    
Precipitation  
Precipitation 0.06 in - - ()
Sea Level Pressure  
Sea Level Pressure 30.01 in    
Wind  
Wind Speed 4 mph (NE)    
Max Wind Speed 9 mph    
Max Gust Speed -    
Visibility 8 miles    
Events Rain    
Averages and records for this station are not official NWS values.
T = Trace of Precipitation, MM = Missing Value Source: NWS Daily Summary

Daily Weather History Graph

Daily Weather History Graph

Search for Another Location

Airport or City:

Astronomy

Mar. 04, 2014 Rise Set
Actual Time 6:23 AM PST 5:50 PM PST
Civil Twilight 5:56 AM PST 6:17 PM PST
Nautical Twilight 5:25 AM PST 6:48 PM PST
Astronomical Twilight 4:54 AM PST 7:19 PM PST
Moon 8:13 AM PST (3/4) 10:01 PM PST (3/4)
Length of Visible Light 12h 21m
Length of Day
11h 27m
Waxing Crescent, 15% of the Moon is Illuminated
Mar 4
Waxing Crescent
Mar 8
First Quarter
Mar 16
Full
Mar 23
Last Quarter
Mar 30
New

Hourly Weather History & Observations

Time (PST) Temp. Windchill Dew Point Humidity Pressure Visibility Wind Dir Wind Speed Gust Speed Precip Events Conditions
12:56 AM 46.0 °F 43.9 °F 44.1 °F 93% 29.95 in 10.0 mi East 4.6 mph - 0.02 in Rain Light Rain
1:56 AM 46.0 °F 43.9 °F 44.1 °F 93% 29.95 in 10.0 mi North 4.6 mph - 0.01 in Rain Light Rain
2:56 AM 46.0 °F - 44.1 °F 93% 29.95 in 8.0 mi Calm Calm - 0.03 in Rain Light Rain
3:56 AM 44.1 °F 42.5 °F 43.0 °F 96% 29.94 in 4.0 mi NNE 3.5 mph - 0.00 in   Overcast
3:59 AM 44.1 °F 41.5 °F 42.1 °F 93% 30.03 in 1.8 mi North 4.6 mph - N/A   Overcast
4:09 AM 44.1 °F 41.5 °F 42.1 °F 93% 30.03 in 3.0 mi North 4.6 mph - N/A   Overcast
4:18 AM 44.1 °F 40.8 °F 42.1 °F 93% 30.03 in 2.5 mi NE 5.8 mph - N/A   Overcast
4:21 AM 44.1 °F 41.5 °F 42.1 °F 93% 30.04 in 1.8 mi NNE 4.6 mph - N/A   Overcast
4:26 AM 44.1 °F - 43.0 °F 96% 30.04 in 2.0 mi Calm Calm - N/A   Overcast
4:42 AM 44.1 °F 40.1 °F 42.1 °F 93% 30.03 in 9.0 mi East 6.9 mph - N/A   Mostly Cloudy
4:56 AM 44.1 °F - 43.0 °F 96% 29.94 in 10.0 mi Calm Calm - N/A   Mostly Cloudy
5:56 AM 43.0 °F 41.3 °F 42.1 °F 97% 29.98 in 10.0 mi NNW 3.5 mph - N/A   Overcast
6:14 AM 44.1 °F 42.5 °F 42.1 °F 93% 30.08 in 10.0 mi North 3.5 mph - N/A   Mostly Cloudy
6:56 AM 43.0 °F 39.5 °F 41.0 °F 93% 30.01 in 7.0 mi West 5.8 mph - N/A   Mostly Cloudy
7:26 AM 44.1 °F 42.5 °F 43.0 °F 96% 30.11 in 9.0 mi NE 3.5 mph - 0.00 in   Overcast
7:56 AM 45.0 °F 41.8 °F 42.1 °F 90% 30.03 in 10.0 mi North 5.8 mph - 0.00 in   Mostly Cloudy
8:56 AM 46.9 °F - 39.9 °F 77% 30.05 in 10.0 mi North 3.5 mph - N/A   Mostly Cloudy
9:56 AM 50.0 °F - 39.9 °F 68% 30.06 in 10.0 mi NNW 4.6 mph - N/A   Mostly Cloudy
10:56 AM 51.1 °F - 39.0 °F 63% 30.07 in 10.0 mi North 4.6 mph - N/A   Mostly Cloudy
11:56 AM 53.1 °F - 37.9 °F 57% 30.05 in 10.0 mi Calm Calm - N/A   Mostly Cloudy
12:56 PM 55.9 °F - 37.0 °F 49% 30.03 in 10.0 mi Variable 3.5 mph - N/A   Mostly Cloudy
1:56 PM 55.0 °F - 36.0 °F 49% 30.02 in 10.0 mi Calm Calm - N/A   Mostly Cloudy
2:56 PM 57.0 °F - 36.0 °F 45% 30.01 in 10.0 mi NW 4.6 mph - N/A   Mostly Cloudy
3:56 PM 57.0 °F - 33.1 °F 40% 29.99 in 10.0 mi Calm Calm - N/A   Mostly Cloudy
4:56 PM 55.9 °F - 33.1 °F 42% 29.99 in 10.0 mi South 3.5 mph - N/A   Overcast
5:56 PM 52.0 °F - 36.0 °F 54% 29.99 in 10.0 mi ESE 3.5 mph - N/A   Mostly Cloudy
6:56 PM 48.9 °F - 39.9 °F 71% 29.99 in 10.0 mi East 5.8 mph - N/A   Mostly Cloudy
7:56 PM 46.9 °F - 39.0 °F 74% 29.99 in 10.0 mi East 5.8 mph - N/A   Scattered Clouds
8:56 PM 45.0 °F - 37.9 °F 76% 29.99 in 10.0 mi North - - N/A   Scattered Clouds
9:56 PM 43.0 °F 38.8 °F 37.0 °F 80% 30.00 in 10.0 mi SE 6.9 mph - N/A   Scattered Clouds
10:56 PM 42.1 °F 36.6 °F 35.1 °F 76% 29.99 in 10.0 mi ESE 9.2 mph - N/A   Clear
11:56 PM 42.1 °F 37.7 °F 35.1 °F 76% 29.98 in 10.0 mi ESE 6.9 mph - N/A   Clear